contact:dominique.lefevre@mio.osupytheas.fr, maurice.libes@osupytheas.fr, didier.mallarino@osupytheas.fr
Project:EMSO http://www.emso-fr.org/EMSO-France
Depth: 2436.0 m
Title:EMSO Ligure Ouest : Data MII capteur AQUADOPP
Date,Latitude,Longitude,X_East,Y_North,Z_Up,Amplitude_X,Amplitude_Y,Amplitude_Z,Batterie,SoundSpeed,Heading,Pitch,Roll,Pressure,TIS,Speed,Direction
, degrees North, degrees East, m.s-1, m.s-1,m.s-1, 1, 1, 1, Volt, m.s-1, degree, degree, degree, dbar, degree_C, m.s-1, degree
2019-06-22T00:09:04,42.805,6.029,0.017,0.027,-0.038,103.0,102.0,96.0,13.4,1505.3,326.6,-0.8,1.9,2470.292,13.31,0.031,32.2
2019-06-22T00:12:05,42.805,6.029,0.028,-0.025,-0.003,101.0,102.0,97.0,13.4,1505.3,328.2,-0.7,1.8,2470.258,13.32,0.037,131.8
2019-06-22T00:15:06,42.805,6.029,-0.005,-0.016,-0.028,99.0,103.0,96.0,13.3,1505.3,324.1,-0.8,1.8,2470.253,13.33,0.016,197.4
2019-06-22T00:18:07,42.805,6.029,0.028,0.009,0.0,100.0,103.0,97.0,13.3,1505.3,327.2,-0.7,1.8,2470.222,13.33,0.029,72.2
2019-06-22T00:21:08,42.805,6.029,-0.018,0.024,-0.057,99.0,103.0,97.0,13.4,1505.4,327.4,-0.7,1.8,2470.229,13.34,0.03,323.1
2019-06-22T00:24:09,42.805,6.029,-0.01,0.007,-0.055,101.0,104.0,96.0,13.4,1505.4,326.8,-0.7,1.9,2470.215,13.34,0.012,305.0
2019-06-22T00:27:10,42.805,6.029,-0.004,-0.012,0.014,101.0,102.0,99.0,13.4,1505.4,327.8,-0.7,1.9,2470.217,13.34,0.012,198.4
2019-06-22T00:30:11,42.805,6.029,0.01,0.002,-0.001,101.0,102.0,98.0,13.4,1505.4,323.9,-0.7,1.8,2470.224,13.34,0.01,78.7
2019-06-22T00:33:12,42.805,6.029,-0.002,0.004,0.019,99.0,103.0,102.0,13.4,1505.4,326.5,-0.7,1.8,2470.191,13.34,0.004,333.4
2019-06-22T00:36:13,42.805,6.029,0.011,0.016,0.025,99.0,102.0,97.0,13.4,1505.4,328.3,-0.7,1.9,2470.253,13.34,0.019,34.5
2019-06-22T00:39:14,42.805,6.029,0.028,-0.008,0.042,100.0,103.0,97.0,13.4,1505.4,326.7,-0.7,1.9,2470.21,13.34,0.029,105.9
2019-06-22T00:42:15,42.805,6.029,0.017,0.005,0.001,104.0,104.0,97.0,13.4,1505.4,324.9,-0.7,1.8,2470.209,13.34,0.017,73.6
2019-06-22T00:45:16,42.805,6.029,0.029,0.003,0.018,100.0,103.0,98.0,13.4,1505.4,327.1,-0.7,1.9,2470.19,13.35,0.029,84.1
2019-06-22T00:48:17,42.805,6.029,0.0,-0.002,-0.011,99.0,105.0,97.0,13.4,1505.4,325.4,-0.7,1.8,2470.185,13.34,0.002,180.0
2019-06-22T00:51:18,42.805,6.029,-0.005,0.029,0.029,100.0,103.0,98.0,13.4,1505.4,326.1,-0.8,1.8,2470.208,13.35,0.029,350.2
2019-06-22T00:54:19,42.805,6.029,0.0,0.0,0.009,98.0,105.0,97.0,13.3,1505.4,326.3,-0.7,1.8,2470.197,13.35,0.0,0.0
2019-06-22T00:57:20,42.805,6.029,0.008,0.015,-0.014,99.0,103.0,96.0,13.3,1505.4,326.2,-0.8,1.9,2470.16,13.35,0.017,28.1
2019-06-22T01:00:21,42.805,6.029,0.0,0.022,0.009,98.0,103.0,97.0,13.4,1505.4,326.5,-0.7,1.8,2470.136,13.35,0.022,0.0
2019-06-22T01:03:22,42.805,6.029,-0.004,0.028,0.019,98.0,103.0,98.0,13.4,1505.4,324.9,-0.8,1.8,2470.158,13.35,0.028,351.9
2019-06-22T01:06:23,42.805,6.029,0.002,-0.001,-0.02,100.0,103.0,98.0,13.4,1505.4,323.4,-0.7,1.8,2470.149,13.35,0.002,116.6
2019-06-22T01:09:24,42.805,6.029,0.011,0.02,-0.001,101.0,103.0,98.0,13.3,1505.4,324.3,-0.7,1.8,2470.162,13.35,0.022,28.8
2019-06-22T01:12:25,42.805,6.029,-0.032,0.007,-0.048,102.0,106.0,97.0,13.4,1505.4,327.1,-0.8,1.8,2470.172,13.35,0.032,282.3
2019-06-22T01:15:26,42.805,6.029,-0.067,0.0,-0.078,100.0,106.0,97.0,13.4,1505.4,326.5,-0.8,1.8,2470.204,13.35,0.066,270.0
2019-06-22T01:18:27,42.805,6.029,-0.043,0.026,-0.015,103.0,105.0,98.0,13.4,1505.4,327.9,-0.7,1.8,2470.142,13.35,0.05,301.2
2019-06-22T01:21:28,42.805,6.029,-0.016,0.009,-0.018,102.0,107.0,97.0,13.4,1505.4,326.4,-0.7,1.8,2470.181,13.35,0.018,299.4
2019-06-22T01:24:29,42.805,6.029,-0.033,0.023,-0.042,100.0,106.0,97.0,13.4,1505.4,324.7,-0.7,1.8,2470.133,13.35,0.04,304.9
2019-06-22T01:27:30,42.805,6.029,-0.041,0.02,-0.067,99.0,106.0,97.0,13.3,1505.4,324.9,-0.8,1.8,2470.147,13.35,0.045,296.0
2019-06-22T01:30:31,42.805,6.029,-0.01,0.011,-0.035,100.0,108.0,99.0,13.4,1505.4,325.1,-0.7,1.8,2470.157,13.35,0.014,317.7
2019-06-22T01:33:32,42.805,6.029,-0.008,0.012,-0.009,100.0,106.0,100.0,13.3,1505.4,323.6,-0.8,1.8,2470.136,13.35,0.014,326.3
2019-06-22T01:36:33,42.805,6.029,-0.002,-0.01,-0.036,100.0,107.0,97.0,13.3,1505.4,325.5,-0.7,1.9,2470.13,13.35,0.01,191.3
2019-06-22T01:39:34,42.805,6.029,-0.007,0.011,0.0,101.0,107.0,98.0,13.4,1505.4,324.7,-0.7,1.8,2470.19,13.35,0.013,327.5
2019-06-22T01:42:35,42.805,6.029,-0.015,0.021,-0.008,101.0,107.0,97.0,13.4,1505.4,324.3,-0.8,1.8,2470.116,13.35,0.025,324.5
2019-06-22T01:45:36,42.805,6.029,0.023,0.005,0.026,102.0,108.0,98.0,13.3,1505.4,324.8,-0.7,1.8,2470.159,13.35,0.023,77.7
2019-06-22T01:48:37,42.805,6.029,0.018,0.003,0.036,100.0,107.0,98.0,13.4,1505.4,325.3,-0.7,1.8,2470.178,13.35,0.018,80.5
2019-06-22T01:51:38,42.805,6.029,0.016,-0.002,-0.008,100.0,111.0,97.0,13.4,1505.4,327.2,-0.8,1.8,2470.154,13.35,0.016,97.1
2019-06-22T01:54:39,42.805,6.029,0.019,-0.002,-0.031,100.0,108.0,98.0,13.4,1505.4,324.1,-0.7,1.8,2470.139,13.35,0.019,96.0
2019-06-22T01:57:40,42.805,6.029,-0.004,0.021,-0.016,102.0,106.0,97.0,13.4,1505.4,326.3,-0.8,1.9,2470.131,13.35,0.021,349.2
2019-06-22T02:00:41,42.805,6.029,-0.005,0.004,-0.022,100.0,107.0,96.0,13.4,1505.4,324.9,-0.7,1.9,2470.116,13.35,0.006,308.7
2019-06-22T02:03:42,42.805,6.029,-0.008,0.018,-0.015,101.0,106.0,99.0,13.4,1505.4,326.8,-0.7,1.8,2470.106,13.35,0.019,336.0
2019-06-22T02:06:43,42.805,6.029,-0.001,-0.002,-0.004,99.0,106.0,97.0,13.4,1505.4,327.0,-0.7,1.9,2470.076,13.35,0.002,206.6
2019-06-22T02:09:44,42.805,6.029,0.026,0.02,-0.006,99.0,105.0,98.0,13.3,1505.4,326.5,-0.7,1.9,2470.121,13.35,0.032,52.4
2019-06-22T02:12:45,42.805,6.029,0.006,0.009,-0.027,101.0,107.0,97.0,13.4,1505.4,325.6,-0.7,1.8,2470.145,13.35,0.01,33.7
2019-06-22T02:15:46,42.805,6.029,-0.013,0.053,-0.04,99.0,106.0,97.0,13.4,1505.4,326.0,-0.7,1.9,2470.114,13.35,0.054,346.2
2019-06-22T02:18:47,42.805,6.029,-0.013,0.002,-0.014,100.0,106.0,96.0,13.4,1505.4,327.7,-0.7,1.8,2470.076,13.35,0.013,278.7
2019-06-22T02:21:48,42.805,6.029,0.001,0.022,0.006,101.0,105.0,97.0,13.3,1505.4,324.3,-0.8,1.8,2470.089,13.35,0.022,2.6
2019-06-22T02:24:49,42.805,6.029,0.001,0.014,0.01,99.0,105.0,98.0,13.3,1505.4,323.7,-0.7,1.9,2470.092,13.35,0.014,4.1
2019-06-22T02:27:50,42.805,6.029,-0.007,0.008,-0.018,99.0,105.0,98.0,13.4,1505.4,324.5,-0.7,1.8,2470.109,13.35,0.01,318.8
2019-06-22T02:30:51,42.805,6.029,-0.027,0.004,-0.056,100.0,105.0,98.0,13.4,1505.4,323.9,-0.7,1.8,2470.123,13.35,0.027,278.4
2019-06-22T02:33:52,42.805,6.029,0.001,-0.013,-0.028,100.0,105.0,98.0,13.3,1505.4,324.8,-0.8,1.9,2470.102,13.35,0.013,175.6
2019-06-22T02:36:53,42.805,6.029,-0.036,0.001,-0.047,100.0,106.0,97.0,13.4,1505.4,327.2,-0.7,1.8,2470.077,13.35,0.036,271.6
2019-06-22T02:39:54,42.805,6.029,-0.011,0.015,-0.036,100.0,106.0,98.0,13.3,1505.4,323.7,-0.7,1.8,2470.093,13.35,0.018,323.7
2019-06-22T02:42:55,42.805,6.029,-0.005,-0.002,-0.047,100.0,107.0,98.0,13.4,1505.4,324.5,-0.7,1.8,2470.116,13.35,0.005,248.2
2019-06-22T02:45:56,42.805,6.029,0.019,0.008,-0.022,101.0,106.0,96.0,13.4,1505.4,323.7,-0.8,1.9,2470.116,13.35,0.02,67.2
2019-06-22T02:48:57,42.805,6.029,-0.006,0.021,0.003,100.0,106.0,98.0,13.4,1505.4,325.7,-0.7,1.8,2470.101,13.34,0.021,344.1
2019-06-22T02:51:58,42.805,6.029,-0.013,0.006,-0.034,100.0,109.0,97.0,13.4,1505.4,327.0,-0.7,1.9,2470.144,13.34,0.014,294.8
2019-06-22T02:54:59,42.805,6.029,-0.027,0.009,-0.038,101.0,107.0,98.0,13.3,1505.4,326.3,-0.7,1.8,2470.087,13.34,0.028,288.4
2019-06-22T02:58:00,42.805,6.029,0.02,0.003,-0.011,102.0,108.0,98.0,13.3,1505.4,327.8,-0.8,1.9,2470.081,13.34,0.02,81.5
2019-06-22T03:01:01,42.805,6.029,-0.022,0.005,-0.06,102.0,106.0,98.0,13.4,1505.4,324.4,-0.7,1.9,2470.146,13.34,0.022,282.8
2019-06-22T03:04:02,42.805,6.029,-0.011,0.008,-0.033,102.0,106.0,98.0,13.4,1505.4,326.2,-0.7,1.9,2470.096,13.34,0.013,306.0
2019-06-22T03:07:03,42.805,6.029,0.017,-0.007,-0.023,102.0,106.0,99.0,13.3,1505.3,324.9,-0.7,1.9,2470.092,13.33,0.018,112.4
2019-06-22T03:10:04,42.805,6.029,-0.001,-0.007,-0.022,101.0,105.0,98.0,13.4,1505.3,327.6,-0.7,1.8,2470.11,13.33,0.007,188.1
2019-06-22T03:13:05,42.805,6.029,0.015,0.002,-0.011,100.0,106.0,98.0,13.4,1505.3,325.8,-0.7,1.9,2470.11,13.33,0.015,82.4
2019-06-22T03:16:06,42.805,6.029,-0.036,-0.003,-0.064,100.0,106.0,97.0,13.4,1505.3,326.5,-0.8,1.9,2470.126,13.33,0.036,265.2
2019-06-22T03:19:07,42.805,6.029,-0.008,0.02,-0.03,99.0,106.0,96.0,13.4,1505.3,327.6,-0.7,1.8,2470.138,13.33,0.021,338.2
2019-06-22T03:22:08,42.805,6.029,-0.008,0.023,-0.016,102.0,105.0,97.0,13.3,1505.3,324.7,-0.8,1.8,2470.1,13.33,0.024,340.8
2019-06-22T03:25:09,42.805,6.029,-0.016,0.012,-0.017,101.0,107.0,98.0,13.4,1505.3,328.4,-0.7,1.8,2470.085,13.33,0.02,306.9
2019-06-22T03:28:10,42.805,6.029,0.01,0.001,-0.01,99.0,106.0,98.0,13.4,1505.3,324.1,-0.7,1.9,2470.113,13.33,0.01,84.3
2019-06-22T03:31:11,42.805,6.029,0.004,0.018,-0.026,99.0,106.0,100.0,13.3,1505.3,326.6,-0.7,1.8,2470.114,13.33,0.018,12.5
2019-06-22T03:34:12,42.805,6.029,-0.011,0.007,0.0,99.0,105.0,96.0,13.3,1505.3,325.1,-0.7,1.8,2470.1,13.33,0.013,302.5
2019-06-22T03:37:13,42.805,6.029,-0.002,0.015,-0.038,101.0,106.0,97.0,13.3,1505.3,323.5,-0.8,1.8,2470.096,13.33,0.015,352.4
2019-06-22T03:40:14,42.805,6.029,-0.004,0.007,-0.017,99.0,106.0,100.0,13.4,1505.3,326.5,-0.7,1.9,2470.111,13.33,0.008,330.3
2019-06-22T03:43:15,42.805,6.029,-0.019,0.0,-0.058,100.0,104.0,98.0,13.4,1505.3,326.3,-0.7,1.8,2470.054,13.33,0.019,270.0
2019-06-22T03:46:16,42.805,6.029,0.008,0.009,-0.034,100.0,108.0,97.0,13.3,1505.3,327.6,-0.7,1.8,2470.042,13.33,0.012,41.6
2019-06-22T03:49:17,42.805,6.029,-0.012,-0.001,-0.059,101.0,106.0,97.0,13.4,1505.3,322.8,-0.7,1.9,2470.077,13.33,0.012,265.2
2019-06-22T03:52:18,42.805,6.029,-0.015,-0.002,-0.055,100.0,106.0,96.0,13.4,1505.3,325.5,-0.7,1.8,2470.081,13.33,0.015,262.4
2019-06-22T03:55:19,42.805,6.029,-0.024,0.006,-0.039,101.0,106.0,98.0,13.4,1505.3,327.3,-0.7,1.9,2470.077,13.33,0.024,284.0
2019-06-22T03:58:20,42.805,6.029,0.023,0.017,0.019,104.0,107.0,98.0,13.3,1505.3,326.4,-0.7,1.9,2470.079,13.33,0.028,53.5
2019-06-22T04:01:21,42.805,6.029,0.004,0.009,0.012,101.0,107.0,98.0,13.3,1505.3,327.6,-0.7,1.9,2470.145,13.33,0.009,24.0
2019-06-22T04:04:22,42.805,6.029,0.022,0.016,-0.008,102.0,107.0,99.0,13.3,1505.3,326.8,-0.7,1.9,2470.111,13.33,0.027,54.0
2019-06-22T04:07:23,42.805,6.029,-0.008,-0.001,-0.032,101.0,107.0,96.0,13.4,1505.3,325.8,-0.8,1.9,2470.088,13.33,0.008,262.9
2019-06-22T04:10:24,42.805,6.029,0.059,0.003,0.012,101.0,106.0,99.0,13.4,1505.3,326.4,-0.7,1.9,2470.093,13.33,0.059,87.1
2019-06-22T04:13:25,42.805,6.029,0.0,-0.006,-0.018,101.0,104.0,98.0,13.4,1505.3,326.0,-0.7,1.8,2470.026,13.33,0.006,180.0
2019-06-22T04:16:26,42.805,6.029,0.017,-0.003,-0.032,100.0,106.0,98.0,13.4,1505.3,323.3,-0.7,1.8,2470.035,13.33,0.017,100.0
2019-06-22T04:19:27,42.805,6.029,-0.004,-0.002,-0.059,102.0,105.0,99.0,13.4,1505.3,325.2,-0.7,1.9,2470.057,13.33,0.004,243.4
2019-06-22T04:22:28,42.805,6.029,0.006,0.024,-0.013,100.0,107.0,97.0,13.4,1505.3,326.6,-0.7,1.8,2470.083,13.33,0.024,14.0
2019-06-22T04:25:29,42.805,6.029,0.004,0.015,-0.009,101.0,105.0,99.0,13.4,1505.3,325.3,-0.7,1.8,2470.058,13.33,0.015,14.9
2019-06-22T04:28:30,42.805,6.029,0.016,-0.003,-0.012,102.0,113.0,99.0,13.4,1505.3,328.5,-0.7,1.9,2470.071,13.33,0.016,100.6
2019-06-22T04:31:31,42.805,6.029,0.009,-0.016,-0.01,101.0,106.0,99.0,13.4,1505.3,326.1,-0.7,1.8,2470.043,13.33,0.018,150.6
2019-06-22T04:34:32,42.805,6.029,0.021,0.024,0.009,101.0,107.0,99.0,13.4,1505.3,324.8,-0.8,1.8,2470.065,13.33,0.031,41.2
2019-06-22T04:37:33,42.805,6.029,-0.002,0.0,-0.02,102.0,105.0,98.0,13.4,1505.3,327.9,-0.8,1.8,2470.065,13.33,0.002,270.0
2019-06-22T04:40:34,42.805,6.029,0.013,-0.005,-0.035,100.0,107.0,98.0,13.4,1505.3,324.8,-0.7,1.8,2470.084,13.33,0.013,111.0
2019-06-22T04:43:35,42.805,6.029,0.008,-0.001,-0.011,102.0,105.0,98.0,13.3,1505.3,326.4,-0.7,1.8,2470.052,13.33,0.008,97.1
2019-06-22T04:46:36,42.805,6.029,0.011,0.005,-0.018,100.0,107.0,98.0,13.4,1505.3,325.1,-0.7,1.9,2470.075,13.33,0.012,65.6
2019-06-22T04:49:37,42.805,6.029,-0.005,0.004,-0.023,101.0,107.0,99.0,13.4,1505.3,325.0,-0.7,1.9,2470.094,13.33,0.006,308.7
2019-06-22T04:52:38,42.805,6.029,0.029,-0.009,-0.034,101.0,106.0,98.0,13.4,1505.3,328.4,-0.7,1.9,2470.065,13.33,0.03,107.2
2019-06-22T04:55:39,42.805,6.029,0.015,0.002,-0.015,100.0,106.0,99.0,13.3,1505.3,325.9,-0.8,1.8,2470.022,13.33,0.015,82.4
2019-06-22T04:58:40,42.805,6.029,0.018,0.003,-0.011,100.0,105.0,97.0,13.4,1505.3,324.4,-0.7,1.8,2470.058,13.33,0.018,80.5
2019-06-22T05:01:41,42.805,6.029,0.005,0.01,0.012,101.0,106.0,100.0,13.4,1505.3,323.4,-0.7,1.8,2470.063,13.33,0.011,26.6
2019-06-22T05:04:42,42.805,6.029,0.019,0.009,-0.011,101.0,106.0,98.0,13.4,1505.3,324.2,-0.8,1.9,2470.066,13.33,0.021,64.7
2019-06-22T05:07:43,42.805,6.029,-0.003,0.004,-0.004,101.0,105.0,97.0,13.3,1505.3,326.9,-0.7,1.8,2470.073,13.33,0.005,323.1
2019-06-22T05:10:44,42.805,6.029,0.005,-0.01,-0.04,100.0,107.0,97.0,13.4,1505.3,323.2,-0.7,1.8,2470.084,13.33,0.011,153.4
2019-06-22T05:13:45,42.805,6.029,-0.007,-0.004,-0.02,101.0,107.0,98.0,13.4,1505.3,327.9,-0.8,1.8,2470.11,13.33,0.008,240.3
2019-06-22T05:16:46,42.805,6.029,0.006,0.004,-0.01,100.0,107.0,99.0,13.4,1505.3,326.3,-0.7,1.8,2470.118,13.33,0.007,56.3
2019-06-22T05:19:47,42.805,6.029,0.0,0.023,0.0,102.0,105.0,97.0,13.4,1505.3,326.2,-0.7,1.8,2470.088,13.33,0.023,0.0
2019-06-22T05:22:48,42.805,6.029,0.021,0.0,-0.023,100.0,104.0,98.0,13.4,1505.3,326.5,-0.7,1.8,2470.064,13.33,0.021,90.0
2019-06-22T05:25:49,42.805,6.029,0.0,0.012,-0.013,101.0,106.0,98.0,13.3,1505.3,324.4,-0.7,1.8,2470.039,13.33,0.012,0.0
2019-06-22T05:28:50,42.805,6.029,-0.016,-0.011,-0.06,100.0,105.0,99.0,13.4,1505.3,326.9,-0.7,1.8,2470.062,13.33,0.019,235.5
2019-06-22T05:31:51,42.805,6.029,-0.007,-0.009,-0.026,100.0,106.0,97.0,13.3,1505.3,326.8,-0.8,1.8,2470.066,13.33,0.011,217.9
2019-06-22T05:34:52,42.805,6.029,0.008,0.004,-0.024,100.0,106.0,97.0,13.4,1505.3,326.9,-0.7,1.8,2470.09,13.33,0.008,63.4
2019-06-22T05:37:53,42.805,6.029,0.008,0.021,0.004,101.0,105.0,97.0,13.3,1505.3,323.1,-0.7,1.8,2470.105,13.33,0.022,20.9
2019-06-22T05:40:54,42.805,6.029,0.009,0.002,-0.056,101.0,105.0,98.0,13.3,1505.3,326.9,-0.7,1.8,2470.069,13.33,0.009,77.5
2019-06-22T05:43:55,42.805,6.029,0.06,-0.041,0.003,100.0,105.0,99.0,13.3,1505.3,324.5,-0.7,1.8,2470.088,13.33,0.072,124.3
2019-06-22T05:46:56,42.805,6.029,0.028,-0.01,-0.011,100.0,108.0,99.0,13.4,1505.3,327.3,-0.7,1.8,2470.125,13.33,0.029,109.6
2019-06-22T05:49:57,42.805,6.029,0.016,0.011,-0.013,101.0,106.0,97.0,13.4,1505.3,323.5,-0.7,1.8,2470.122,13.33,0.019,55.5
2019-06-22T05:52:58,42.805,6.029,-0.005,0.008,-0.037,104.0,106.0,97.0,13.3,1505.3,326.3,-0.7,1.8,2470.065,13.33,0.009,328.0
2019-06-22T05:55:59,42.805,6.029,0.019,0.003,0.017,101.0,109.0,99.0,13.4,1505.3,324.6,-0.7,1.8,2470.109,13.33,0.019,81.0
2019-06-22T05:59:00,42.805,6.029,0.008,0.001,-0.007,101.0,107.0,98.0,13.4,1505.3,325.5,-0.8,1.8,2470.064,13.33,0.008,82.9
2019-06-22T06:02:01,42.805,6.029,0.022,0.006,0.014,102.0,106.0,98.0,13.3,1505.3,326.6,-0.7,1.9,2470.08,13.33,0.022,74.7
2019-06-22T06:05:02,42.805,6.029,-0.003,0.012,-0.019,102.0,104.0,98.0,13.3,1505.3,327.4,-0.7,1.9,2470.038,13.33,0.012,346.0
2019-06-22T06:08:03,42.805,6.029,-0.015,-0.007,-0.028,102.0,106.0,99.0,13.4,1505.3,326.0,-0.7,1.9,2470.043,13.33,0.016,245.0
2019-06-22T06:11:04,42.805,6.029,0.012,0.0,0.015,101.0,107.0,99.0,13.4,1505.3,325.8,-0.8,1.8,2470.061,13.33,0.012,90.0
2019-06-22T06:14:05,42.805,6.029,0.009,0.0,-0.008,103.0,107.0,97.0,13.4,1505.3,326.5,-0.7,1.9,2470.065,13.33,0.009,90.0
2019-06-22T06:17:06,42.805,6.029,0.027,0.0,-0.001,101.0,107.0,99.0,13.3,1505.3,327.4,-0.8,1.8,2470.035,13.33,0.026,90.0
2019-06-22T06:20:07,42.805,6.029,0.002,-0.007,-0.028,100.0,108.0,99.0,13.4,1505.3,323.3,-0.7,1.9,2470.096,13.33,0.007,164.1
2019-06-22T06:23:08,42.805,6.029,0.0,0.013,-0.05,103.0,106.0,100.0,13.4,1505.3,325.1,-0.7,1.8,2470.053,13.33,0.013,0.0
2019-06-22T06:26:09,42.805,6.029,-0.014,-0.005,-0.044,101.0,107.0,97.0,13.3,1505.3,327.1,-0.7,1.8,2470.094,13.33,0.014,250.4
2019-06-22T06:29:10,42.805,6.029,-0.005,0.003,-0.018,103.0,106.0,98.0,13.4,1505.3,325.8,-0.7,1.8,2470.095,13.33,0.005,301.0
2019-06-22T06:32:11,42.805,6.029,-0.013,0.001,-0.026,103.0,107.0,99.0,13.4,1505.3,324.1,-0.7,1.9,2470.061,13.33,0.013,274.4
2019-06-22T06:35:12,42.805,6.029,0.003,-0.001,-0.038,102.0,105.0,98.0,13.3,1505.3,325.8,-0.7,1.9,2470.093,13.33,0.003,108.4
2019-06-22T06:38:13,42.805,6.029,-0.01,-0.007,-0.011,102.0,106.0,98.0,13.4,1505.3,327.8,-0.7,1.8,2470.054,13.33,0.012,235.0
2019-06-22T06:41:14,42.805,6.029,0.023,0.011,-0.021,101.0,107.0,98.0,13.3,1505.3,326.5,-0.8,1.8,2470.056,13.33,0.025,64.4
2019-06-22T06:44:15,42.805,6.029,-0.003,0.001,-0.049,102.0,108.0,97.0,13.4,1505.3,325.9,-0.7,1.8,2470.083,13.33,0.003,288.4
2019-06-22T06:47:16,42.805,6.029,0.002,0.007,-0.012,103.0,107.0,98.0,13.3,1505.3,323.3,-0.7,1.8,2470.104,13.33,0.007,15.9
2019-06-22T06:50:17,42.805,6.029,-0.004,-0.006,-0.043,101.0,107.0,98.0,13.3,1505.3,324.6,-0.7,1.8,2470.077,13.33,0.007,213.7
2019-06-22T06:53:18,42.805,6.029,-0.018,-0.013,-0.048,102.0,106.0,99.0,13.4,1505.3,327.8,-0.7,1.8,2470.081,13.33,0.022,234.2
2019-06-22T06:56:19,42.805,6.029,-0.032,0.006,-0.055,102.0,109.0,99.0,13.4,1505.3,322.9,-0.7,1.8,2470.099,13.33,0.032,280.6
2019-06-22T06:59:20,42.805,6.029,-0.011,-0.001,-0.071,101.0,106.0,100.0,13.4,1505.3,326.7,-0.7,1.8,2470.111,13.33,0.011,264.8
2019-06-22T07:02:21,42.805,6.029,0.002,-0.009,-0.046,103.0,106.0,99.0,13.3,1505.3,326.8,-0.7,1.9,2470.067,13.33,0.009,167.5
2019-06-22T07:05:22,42.805,6.029,0.007,0.015,-0.005,103.0,106.0,99.0,13.3,1505.3,323.6,-0.7,1.9,2470.099,13.33,0.016,25.0
2019-06-22T07:08:23,42.805,6.029,-0.01,0.007,-0.033,101.0,108.0,100.0,13.3,1505.3,324.1,-0.7,1.8,2470.09,13.33,0.012,305.0
2019-06-22T07:11:24,42.805,6.029,0.002,0.004,-0.038,103.0,107.0,97.0,13.4,1505.3,325.2,-0.7,1.8,2470.077,13.33,0.004,26.6
2019-06-22T07:14:25,42.805,6.029,0.008,-0.018,-0.009,101.0,107.0,99.0,13.4,1505.3,327.0,-0.7,1.8,2470.097,13.33,0.019,156.0
2019-06-22T07:17:26,42.805,6.029,0.008,0.0,-0.003,102.0,104.0,100.0,13.4,1505.3,327.5,-0.8,1.9,2470.069,13.33,0.008,90.0
2019-06-22T07:20:27,42.805,6.029,-0.011,-0.007,-0.007,102.0,109.0,98.0,13.4,1505.3,324.9,-0.7,1.9,2470.107,13.33,0.013,237.5
2019-06-22T07:23:28,42.805,6.029,-0.058,-0.019,-0.042,103.0,105.0,100.0,13.4,1505.3,323.0,-0.7,1.8,2470.14,13.33,0.061,251.9
2019-06-22T07:26:29,42.805,6.029,0.011,-0.011,-0.032,102.0,107.0,98.0,13.4,1505.3,324.0,-0.7,1.9,2470.1,13.33,0.015,135.0
2019-06-22T07:29:30,42.805,6.029,0.007,-0.011,-0.019,100.0,107.0,99.0,13.3,1505.3,323.3,-0.7,1.8,2470.102,13.33,0.013,147.5
2019-06-22T07:32:31,42.805,6.029,0.012,-0.022,-0.037,101.0,106.0,98.0,13.4,1505.3,325.3,-0.8,1.8,2470.102,13.33,0.025,151.4
2019-06-22T07:35:32,42.805,6.029,0.006,-0.004,-0.045,102.0,106.0,98.0,13.4,1505.3,327.6,-0.8,1.8,2470.059,13.33,0.007,123.7
2019-06-22T07:38:33,42.805,6.029,-0.033,-0.011,-0.051,102.0,106.0,97.0,13.4,1505.3,326.4,-0.7,1.9,2470.09,13.33,0.034,251.6
2019-06-22T07:41:34,42.805,6.029,-0.03,-0.013,-0.061,100.0,106.0,98.0,13.4,1505.3,328.0,-0.7,1.8,2470.082,13.33,0.032,246.6
2019-06-22T07:44:35,42.805,6.029,-0.017,-0.017,-0.034,101.0,107.0,99.0,13.4,1505.3,324.4,-0.7,1.9,2470.126,13.33,0.024,225.0
2019-06-22T07:47:36,42.805,6.029,0.043,0.011,0.0,101.0,104.0,98.0,13.4,1505.3,324.1,-0.7,1.8,2470.089,13.33,0.044,75.7
2019-06-22T07:50:37,42.805,6.029,0.012,0.019,0.01,99.0,106.0,100.0,13.3,1505.3,323.7,-0.7,1.9,2470.08,13.33,0.022,32.3
2019-06-22T07:53:38,42.805,6.029,0.037,0.005,0.021,108.0,106.0,98.0,13.3,1505.3,326.5,-0.7,1.8,2470.174,13.33,0.037,82.3
2019-06-22T07:56:39,42.805,6.029,0.005,-0.024,-0.031,103.0,107.0,99.0,13.4,1505.3,328.4,-0.7,1.9,2470.112,13.33,0.024,168.2
2019-06-22T07:59:40,42.805,6.029,0.025,0.012,0.0,101.0,105.0,99.0,13.4,1505.3,325.7,-0.7,1.9,2470.07,13.33,0.027,64.4
2019-06-22T08:02:41,42.805,6.029,0.025,-0.001,-0.011,100.0,105.0,98.0,13.4,1505.3,325.6,-0.7,1.8,2470.111,13.33,0.025,92.3
2019-06-22T08:05:42,42.805,6.029,0.044,-0.001,0.019,102.0,105.0,98.0,13.4,1505.3,323.4,-0.7,1.8,2470.09,13.33,0.044,91.3
2019-06-22T08:08:43,42.805,6.029,0.033,0.0,0.015,101.0,105.0,96.0,13.3,1505.3,324.8,-0.7,1.9,2470.138,13.33,0.033,90.0
2019-06-22T08:11:44,42.805,6.029,0.002,0.011,-0.005,102.0,104.0,99.0,13.4,1505.3,327.3,-0.7,1.8,2470.135,13.33,0.011,10.3
2019-06-22T08:14:45,42.805,6.029,0.024,0.021,0.005,102.0,104.0,97.0,13.4,1505.3,327.0,-0.7,1.8,2470.118,13.33,0.031,48.8
2019-06-22T08:17:46,42.805,6.029,0.021,-0.008,0.004,101.0,105.0,100.0,13.4,1505.3,326.1,-0.7,1.8,2470.126,13.33,0.022,110.9
2019-06-22T08:20:47,42.805,6.029,0.006,-0.02,-0.022,102.0,104.0,98.0,13.4,1505.3,322.8,-0.7,1.8,2470.11,13.33,0.02,163.3
2019-06-22T08:23:48,42.805,6.029,0.001,-0.011,-0.027,101.0,105.0,99.0,13.3,1505.3,326.2,-0.7,1.9,2470.118,13.33,0.011,174.8
2019-06-22T08:26:49,42.805,6.029,0.0,-0.003,-0.05,100.0,114.0,98.0,13.4,1505.3,327.5,-0.7,1.9,2470.074,13.33,0.003,180.0
2019-06-22T08:29:50,42.805,6.029,-0.039,-0.027,-0.08,100.0,105.0,97.0,13.3,1505.3,323.5,-0.7,1.8,2470.147,13.33,0.047,235.3
2019-06-22T08:32:51,42.805,6.029,-0.022,0.012,-0.02,102.0,105.0,98.0,13.3,1505.3,327.3,-0.7,1.8,2470.105,13.33,0.025,298.6
2019-06-22T08:35:52,42.805,6.029,-0.015,-0.006,-0.063,104.0,104.0,98.0,13.4,1505.3,323.8,-0.7,1.8,2470.097,13.33,0.016,248.2
2019-06-22T08:38:53,42.805,6.029,-0.017,-0.009,-0.033,101.0,105.0,96.0,13.4,1505.3,324.8,-0.7,1.8,2470.109,13.33,0.019,242.1
2019-06-22T08:41:54,42.805,6.029,-0.028,-0.013,-0.048,102.0,104.0,97.0,13.4,1505.3,327.3,-0.8,1.9,2470.096,13.33,0.03,245.1
2019-06-22T08:44:55,42.805,6.029,-0.003,0.008,-0.022,101.0,106.0,97.0,13.3,1505.4,324.7,-0.7,1.8,2470.141,13.34,0.008,339.4
2019-06-22T08:47:56,42.805,6.029,0.001,0.002,-0.022,101.0,105.0,99.0,13.4,1505.4,325.3,-0.7,1.8,2470.159,13.34,0.002,26.6
2019-06-22T08:50:57,42.805,6.029,0.0,-0.007,-0.019,100.0,106.0,100.0,13.3,1505.4,326.9,-0.7,1.9,2470.084,13.34,0.007,180.0
2019-06-22T08:53:58,42.805,6.029,-0.003,0.0,-0.012,101.0,106.0,98.0,13.4,1505.4,325.2,-0.7,1.8,2470.139,13.34,0.003,270.0
2019-06-22T08:56:59,42.805,6.029,0.02,-0.022,-0.025,101.0,107.0,97.0,13.4,1505.4,326.1,-0.7,1.8,2470.145,13.34,0.029,137.7
2019-06-22T09:00:00,42.805,6.029,-0.002,0.0,-0.027,102.0,106.0,98.0,13.3,1505.4,323.3,-0.7,1.8,2470.176,13.34,0.002,270.0
2019-06-22T09:03:01,42.805,6.029,0.008,-0.004,-0.014,102.0,106.0,98.0,13.4,1505.4,325.3,-0.8,1.8,2470.114,13.34,0.008,116.6
2019-06-22T09:06:02,42.805,6.029,0.023,-0.021,-0.028,101.0,105.0,98.0,13.4,1505.4,328.2,-0.7,1.8,2470.179,13.34,0.031,132.4
2019-06-22T09:09:03,42.805,6.029,0.021,0.003,-0.001,101.0,104.0,98.0,13.4,1505.4,323.0,-0.7,1.8,2470.148,13.34,0.021,81.9
2019-06-22T09:12:04,42.805,6.029,-0.014,-0.013,-0.008,100.0,106.0,99.0,13.4,1505.4,325.9,-0.7,1.8,2470.136,13.34,0.019,227.1
2019-06-22T09:15:05,42.805,6.029,0.009,-0.007,0.022,110.0,105.0,100.0,13.3,1505.4,326.9,-0.8,1.8,2470.099,13.34,0.011,127.9
2019-06-22T09:18:06,42.805,6.029,0.004,0.001,-0.027,101.0,108.0,98.0,13.3,1505.4,324.3,-0.7,1.9,2470.142,13.34,0.004,76.0
2019-06-22T09:21:07,42.805,6.029,0.007,-0.012,-0.009,101.0,106.0,97.0,13.4,1505.4,324.4,-0.8,1.9,2470.146,13.34,0.013,149.7
2019-06-22T09:24:08,42.805,6.029,0.018,-0.004,0.012,103.0,106.0,99.0,13.4,1505.4,327.2,-0.7,1.8,2470.116,13.34,0.018,102.5
2019-06-22T09:27:09,42.805,6.029,0.004,-0.007,0.002,100.0,106.0,98.0,13.4,1505.4,323.4,-0.7,1.8,2470.126,13.34,0.008,150.3
2019-06-22T09:30:10,42.805,6.029,0.008,0.018,-0.008,100.0,105.0,99.0,13.3,1505.4,326.6,-0.7,1.9,2470.123,13.34,0.019,24.0
2019-06-22T09:33:11,42.805,6.029,0.031,0.004,-0.017,100.0,104.0,98.0,13.4,1505.4,324.2,-0.7,1.8,2470.15,13.34,0.031,82.7
2019-06-22T09:36:12,42.805,6.029,0.002,0.007,-0.011,101.0,105.0,98.0,13.4,1505.4,326.8,-0.7,1.9,2470.095,13.34,0.007,15.9
2019-06-22T09:39:13,42.805,6.029,0.032,-0.027,-0.032,103.0,105.0,98.0,13.4,1505.4,322.6,-0.7,1.8,2470.139,13.34,0.041,130.2
2019-06-22T09:42:14,42.805,6.029,0.027,0.001,0.0,100.0,105.0,98.0,13.4,1505.4,324.7,-0.7,1.9,2470.14,13.34,0.027,87.9